SL-16 DEB, 27690

Orbit data source: Space-Track

SL-16 DEB, 27690 is space debris in SSO originally from a launch on Mon, 10 Dec 2001 UTC launched from the Tyuratam Missile And Space Complex (TTMTR). Debris objects in space refer to the collection of defunct objects orbiting the Earth. Examples of debris include non-operational satellites, rocket bodies, and fragments generated from explosions, collisions, or faulty payload assembly.

Loading next visibility...
SL-16 DEB details
Identifier
27690, 2001-056J
Orbit
SSO
Last TLE update12 hours ago
Origin
Flag of CISKVR (CIS)
ManufacturerYuzhnoe
MissionSpacecraft
Bus & MotorSEP MOTOR COVER, Unknown motor
Mass~1 kg wet, ~1 kg dry
Launch date (UTC)
2001-12-10 (23 years ago)
Launch vehicleUnknown
Launch site
Tyuratam Missile And Space Complex (TTMTR)
Object type
Payload
Rocket body
Debris
Shape & HBRCone, 1 m
Radar Cross Section0.635 m², Small (<0.1 m²)

Expand to show TLE details & history

TLE from 12 hours ago
0 SL-16 DEB
1 27690U 01056J   24361.16959625  .00000188  00000-0  44819-3 0  9991
2 27690 100.4468 213.3298 0183169  55.9062  66.4958 13.31002364118902
Epoch: 2024-12-26T04:04Z
Definitive object data (Epoch: 2024-12-26T04:04:13.116Z)
Latitude54.38803°
Longitude-108.03873°
Altitude1,099.015 km
Speed7.334 km/s
True Right ascension03h 12m 40s
True Declination54° 13' 57"
Sunlit
Object was in full shadow at TLE epoch
Visualization TLE readout
Latitude60.76444°
Longitude38.51291°
Altitude1,016.652 km
Speed7.416 km/s
Apparent Right ascension06h 56m 29s
Apparent Declination35° 51' 37"
Sunlit
Object is in daylight
Visualization observer readout
Local Sidereal Time15:45:57
Azimuth323.176° NNW
Elevation-2.464°
Doppler factor1
Orbital elements
Apogee altitude1,278.065 km
Perigee altitude1,002.634 km
Semi-major axis7,518.487 km
Eccentricity0.0183169
Inclination100.4468°
RAAN213.3298°
Arg. of periapsis55.9062°
True anomaly68.43797°
Mean anomaly66.4958°
Eccentric anomaly67.46515°
Mean motion3.32926 °/min
BSTAR0.00044819
Orbital period108.13 mins
Loading maneuver chart data...
Loading historical data...
Loading historical data...
Loading historical data...
Loading historical data...
Loading historical data...
Loading historical data...
Loading historical data...

SL-16 DEB Visibility forecast

Observer location: undefined°, undefined

Span
Click to sort rows by Start time (UTC) header in descending order
Start Az.
Max El. time (UTC)
Max El. Az.
Max El.
End time (UTC)
End Az.
7 mins2024-12-27 01:44:47.934Z56.909° ENE2024-12-27 01:48:47.934Z94.485° ESE15.774°2024-12-27 01:51:47.934Z122.488° SE
11 mins2024-12-27 03:30:47.934Z12.7° NNE2024-12-27 03:35:47.934Z271.861° WNW44.651°2024-12-27 03:41:47.934Z202.247° SSW
4 mins2024-12-27 05:19:47.934Z319.907° NNW2024-12-27 05:21:47.934Z300.003° NW14.24°2024-12-27 05:23:47.934Z281.438° WNW
11 mins2024-12-27 13:51:47.934Z146.858° SSE2024-12-27 13:56:47.934Z67.819° E41.697°2024-12-27 14:02:47.934Z351.014° N
7 mins2024-12-27 15:40:47.934Z233.275° WSW2024-12-27 15:43:47.934Z266.807° W17.96°2024-12-27 15:47:47.934Z308.564° NW
|